STARLINK-5724, 56427

Orbit data source: Space-Track

STARLINK-5724, 56427 is a payload satellite owned by SpaceX/Seattle (US) in LEO that was launched on Thu, 04 May 2023 UTC via an FALCON 9 launch vehicle from the Air Force Eastern Test Range (AFETR). Payload-class satellites include a variety of spacecraft equipped with specific instruments for various scientific and technological missions. These include communications satellites like Starlink; space stations such as the ISS; scientific satellites like the Hubble; Earth observation satellites from companies like Planet Labs, Umbra, and HawkEye 360; GPS; miniature CubeSats for education and research; and military/defense satellites.

Loading next visibility...
Identifier
56427, 2023-061BF
Orbit
LEO
Country
Flag of USUS
Related business
Manufacturer
SpaceX/Seattle
Mission
Operational Commercial Communications
Bus & Motor
STARLINK, Unknown motor
Mass
305 kg wet, ~290 kg dry
Launch date (UTC)
2023-05-04 (3 years ago)
Launch vehicle
FALCON 9
Launch site
Air Force Eastern Test Range (AFETR)
Object type
Payload
Rocket body
Debris
Shape & HBR
Box + 1 Pan, 10.1 m
Radar Cross Section
11.087 m², Large (>1 m²)

Expand to show TLE details & history
Last TLE update: 2 days ago

TLE from 2 days ago
0 STARLINK-5724
1 56427U 23061BF  26171.46570672 -.00000426  00000-0 -59582-5 0  9998
2 56427  43.0059 319.4870 0002119 279.2582  80.8030 15.27579323172673
Epoch: 2026-06-20T11:10Z
TLE epoch observation values (Epoch: 2026-06-20T11:10:37.060Z)
Latitude
-0.00003°
Longitude
-116.84738°
Altitude
482.595 km
Speed
7.626 km/s
True Right ascension
21h 17m 56s
True Declination
0° 00' 00"
Sunlit
Object was in full shadow at epoch
Visualization orbit readout
Latitude
Unknown
Longitude
Unknown
Altitude
Unknown
Speed
Unknown
Apparent Right ascension
Unknown
Apparent Declination
Unknown
Sunlit
N/A
Visualization observer readout
Local Sidereal Time
21:31:42
Azimuth
Unknown
Elevation
Unknown
Doppler factor
Unknown
Orbital elements
Apogee altitude
486.45 km
Perigee altitude
483.541 km
Semi-major axis
6,863.132 km
Eccentricity
0.00021
Inclination
43.0059°
RAAN
319.487°
Arg. of periapsis
279.2582°
True anomaly
80.82697°
Mean anomaly
80.803°
Eccentric anomaly
80.81499°
Mean motion
3.81733 °/min
Orbital period
94.31 mins
BSTAR
-0.0000059582
Loading maneuver chart data...
Computing Atmospheric mass density...
Loading historical data...
Loading historical data...
Loading historical data...
Loading historical data...
Loading historical data...
Loading historical data...
Loading historical data...

Documentation

Showing up to 5 results
|